Printer-friendly version

IAU Minor Planet Center

Minor Planet Center

MPEC 2005-S04 : 2005 RD34

The following Minor Planet Electronic Circular may be linked-to from your own Web pages, but must not otherwise be redistributed electronically.


Read MPEC 2005-S03 Read MPEC 2005-S05


M.P.E.C. 2005-S04                                Issued 2005 Sept. 16, 16:46 UT

     The Minor Planet Electronic Circulars contain information on unusual
         minor planets and routine data on comets.  They are published
   on behalf of Commission 20 of the International Astronomical Union by the
          Minor Planet Center, Smithsonian Astrophysical Observatory,
                          Cambridge, MA 02138, U.S.A.

                  Supported in part by the Brinson Foundation
             Prepared using the Tamkin Foundation Computer Network

                              MPC@CFA.HARVARD.EDU
          URL http://cfa-www.harvard.edu/iau/mpc.html  ISSN 1523-6714

                                   2005 RD34

Observations:
     K05R34D* C2005 09 15.34075 02 46 19.34 +05 05 33.7          18.6 V ES004703
     K05R34D  C2005 09 15.34892 02 46 19.02 +05 04 57.0          19.2 V ES004703
     K05R34D  C2005 09 15.35712 02 46 18.73 +05 04 22.7          19.7 V ES004703
     K05R34D  C2005 09 15.36536 02 46 18.48 +05 03 46.4          19.9 V ES004703
     K05R34D  C2005 09 15.41067 02 46 16.64 +05 00 26.7          18.8 V ES004703
     K05R34D  C2005 09 15.41596 02 46 16.39 +05 00 03.3          18.8 V ES004703
     K05R34D  C2005 09 15.42127 02 46 16.21 +04 59 39.6          18.9 V ES004703
     K05R34D  C2005 09 15.42657 02 46 16.03 +04 59 16.5          19.1 V ES004703
     K05R34D 5C2005 09 16.42836 02 45 46.06 +03 45 58.3          19.4 R ES004673
     K05R34D 5C2005 09 16.43428 02 45 45.78 +03 45 33.2                 ES004673
     K05R34D 5C2005 09 16.44120 02 45 45.50 +03 45 03.0                 ES004673
     K05R34D 5C2005 09 16.44421 02 45 45.35 +03 44 48.6                 ES004673

Observer details:
673 Table Mountain Observatory, Wrightwood.  Observer J. Young.  0.6-m f/16
    Cassegrain + CCD.
703 Catalina Sky Survey.  Observer R. Hill.  Measurers E. C. Beshore,
    C. M. Casey, E. J. Christensen, G. J. Garradd, A. D. Grauer, R. E. Hill,
    S. M. Larson, R. H. McNaught.  0.68-m Schmidt + CCD.

Orbital elements:
2005 RD34
Epoch 2005 Sept. 7.0 TT = JDT 2453620.5                 MPC
M  49.12485              (2000.0)            P               Q
n   0.65243836     Peri.  104.30394     +0.16415983     +0.98603175
a   1.3165673      Node   174.88758     -0.98212895     +0.16604085
e   0.2575872      Incl.   18.42153     -0.09205579     -0.01310855
P   1.51           H   20.2           G   0.15
From 12 observations 2005 Sept. 15-16.

Ephemeris:
2005 RD34                a,e,i = 1.32, 0.26, 18                  q = 0.9774
Date    TT    R. A. (2000) Decl.     Delta      r     Elong.  Phase     V
2005 09 17    02 45.44   +03 04.7    0.260    1.198   133.0    37.9    19.2
2005 09 27    02 36.47   -08 19.1    0.279    1.238   143.2    29.0    19.2
2005 10 07    02 22.58   -17 19.9    0.315    1.277   147.9    24.6    19.4
2005 10 17    02 07.14   -23 15.0    0.366    1.316   146.2    24.9    19.8
2005 10 27    01 53.42   -26 19.7    0.430    1.354   140.8    27.6    20.3
2005 11 06    01 43.56   -27 13.3    0.504    1.391   134.4    30.6    20.7
2005 11 16    01 38.49   -26 36.0    0.586    1.426   127.9    33.2    21.2
2005 11 26    01 37.96   -25 00.1    0.675    1.458   121.5    35.2    21.6
2005 12 06    01 41.38   -22 47.3    0.770    1.489   115.5    36.7    22.0

Kyle E. Smalley              (C) Copyright 2005 MPC           M.P.E.C. 2005-S04

Read MPEC 2005-S03 Read MPEC 2005-S05


Our Web policy. Index to the CBAT/MPC/ICQ pages.


Valid HTML 4.01!